OpenBCM V1.13 (Linux)

Packet Radio Mailbox

DB0FHN

[JN59NK Nuernberg]

 Login: GUEST





  
I0OJJ  > KEPS     25.01.25 06:22l 328 Lines 15576 Bytes #999 (0) @ AMSAT
BID : ORB25025.1
Read: DJ6UX GUEST
Subj: 2Line Orbital Elements 25025.AMSAT
Path: DB0FHN<DB0FFL<OE5XBL<OE6XPE<DB0ERF<DK0WUE<DK0WUE<VK5RSV<PI8ZTM<I0OJJ
Sent: 250125/0345z @:I0OJJ.ITA.EU [Rome] obcm1.08-6-g5b69
From: I0OJJ @ I0OJJ.ITA.EU (Gustavo)
To:   KEPS @ AMSAT
X-Info: This message was generated automatically


QST de W1STR

AMSAT Orbital Elements for Amateur Satellites in TLE Format
From Orbital Analysis Office
New England Sci-Tech STEM Education Center
Natick, MA January 25, 2025
To all radio amateurs


These element sets describe the orbits of various satellites 
in use by the amateur radio community. For details see:
www.amsat.org/keplerian-elements-formats/

A daily update of element sets is available at:
www.amsat.org/tle/daily-bulletin.txt
or without bulletin text:
www.amsat.org/tle/dailytle.txt


AO-07
1 07530U 74089B   25024.60214399 -.00000010  00000-0  22690-3 0  9994
2 07530 101.9920  27.4254 0012280  22.6906  95.6346 12.53685378296784
UO-11
1 14781U 84021B   25024.45525414  .00004600  00000-0  49977-3 0  9998
2 14781  97.7355 353.7443 0009492  70.7402 289.4842 14.88547316181387
AO-27
1 22825U 93061C   25024.61849095  .00000392  00000-0  16707-3 0  9991
2 22825  98.7585  85.3732 0009023 145.6966 214.4800 14.30714798634277
FO-29
1 24278U 96046B   25024.34031904  .00000061  00000-0  10027-3 0  9995
2 24278  98.5884 296.0711 0349686 335.6475  22.8479 13.53233522404348
NOAA-15
1 25338U 98030A   25024.77745930  .00000511  00000-0  22837-3 0  9998
2 25338  98.5500  53.0863 0010901  41.6571 318.5438 14.26865585389035
GO-32
1 25397U 98043D   25024.75776051  .00000353  00000-0  17289-3 0  9992
2 25397  98.9536   1.1680 0000615 189.7543 170.3624 14.24240825379175
ISS
1 25544U 98067A   25024.67510457  .00025956  00000-0  45306-3 0  9996
2 25544  51.6377 297.8978 0002089 131.4270 306.8981 15.50509808492908
NO-44
1 26931U 01043C   25024.63013906  .00000653  00000-0  27601-3 0  9993
2 26931  67.0513 119.3089 0006194 262.0667  97.9732 14.31595556217804
SO-50
1 27607U 02058C   25024.78444537  .00003594  00000-0  47659-3 0  9997
2 27607  64.5540 259.4674 0039790   9.3518 350.8319 14.80830306189324
CO-55
1 27844U 03031E   25024.56833707  .00001063  00000-0  48388-3 0  9998
2 27844  98.6783  34.5972 0009008 217.3888 142.6665 14.23783866119315
CO-57
1 27848U 03031J   25024.45447011  .00000933  00000-0  43233-3 0  9998
2 27848  98.6811  34.5902 0008659 235.9653 124.0703 14.23149660119002
RS-22
1 27939U 03042A   25024.80129786  .00003453  00000-0  56220-3 0  9996
2 27939  98.3104 191.1391 0012669  80.6345  30.8357 14.71644332140851
NOAA-18
1 28654U 05018A   25024.71894748  .00000533  00000-0  30607-3 0  9990
2 28654  98.8552 105.6762 0014784 152.2729 207.9234 14.13496616 14556
CO-58
1 28895U 05043F   25024.36766168  .00004806  00000-0  80828-3 0  9997
2 28895  98.2256 167.2845 0015262  21.9599 338.2257 14.69995420 26928
CO-65
1 32785U 08021C   25024.88249796  .00011285  00000-0  86937-3 0  9995
2 32785  97.7661 355.4353 0008656 324.4883  35.5764 15.01779593908765
AAUSAT2
1 32788U 08021F   25024.50288842  .00100410  00000-0  21962-2 0  9997
2 32788  97.6052  15.1800 0007389  99.9908 260.2173 15.43749511912121
CO-66
1 32791U 08021J   25023.88843729  .00024414  00000-0  13817-2 0  9991
2 32791  97.7147   1.5420 0002297 287.9422  72.1557 15.13036554909788
RS-30
1 32953U 08025A   25024.79431573  .00000028  00000-0  12717-3 0  9990
2 32953  82.5059 311.6477 0019625 344.9107  15.1385 12.43157827756666
NOAA-19
1 33591U 09005A   25024.77415192  .00000451  00000-0  26462-3 0  9997
2 33591  99.0180  88.6113 0014109  31.0080 329.1922 14.13268355822923
SRMSAT
1 37841U 11058D   25024.30841936  .00000740  00000-0  25899-3 0  9992
2 37841  19.9712 259.1409 0011738   6.3131 152.2768 14.11344703685837
ZACUBE-1
1 39417U 13066B   25024.43314610  .00010736  00000-0  98560-3 0  9993
2 39417  97.7630 342.5454 0047432 144.2959 216.1449 14.94154558604563
Delfi-N3xt
1 39428U 13066N   25024.75707592  .00014244  00000-0  15562-2 0  9993
2 39428  97.8377 304.2335 0091976  86.7795 274.3938 14.84887259599075
GOMX-1
1 39430U 13066Q   25024.83983299  .00006376  00000-0  10129-2 0  9996
2 39430  97.7017 251.7571 0133354 266.6747  91.9195 14.66601373595502
LO-74
1 39440U 13066AA  25024.39420045  .00010807  00000-0  11459-2 0  9994
2 39440  97.8357 330.2194 0062684 269.0153  90.3881 14.87811627601174
AO-73
1 39444U 13066AE  25024.46030651  .00013449  00000-0  11011-2 0  9995
2 39444  97.7485 346.5077 0043990 120.4438 240.1141 14.98661525603172
DTUSAT-2
1 40030U 14033W   25024.88162843  .00014417  00000-0  10228-2 0  9993
2 40030  98.0395 350.6112 0010971 146.9974 213.1938 15.04820811576475
EO-80
1 40032U 14033Y   25024.44405778  .00015994  00000-0  11322-2 0  9991
2 40032  98.0279 349.9923 0010819  98.5343 261.7108 15.04879311575872
XW-2C
1 40906U 15049H   25024.77321042  .00380139  55305-4  13251-2 0  9997
2 40906  97.4456  58.2721 0003599 175.2934 184.8372 15.89319353518978
LILACSAT-2
1 40908U 15049K   25024.77642674  .00019350  00000-0  58647-3 0  9997
2 40908  97.5175  42.2143 0008481 291.2784  68.7552 15.34149691517376
IO-86
1 40931U 15052B   25020.20147130  .00001860  00000-0  16130-3 0  9996
2 40931   5.9986 241.3177 0013325 280.8560  79.0069 14.78521742503622
Horyu-4
1 41340U 16012D   25024.51388865  .00033211  00000-0  11626-2 0  9997
2 41340  30.9996 321.3308 0005700  84.7420 275.3873 15.28297767491897
Lapan A3
1 41603U 16040E   25024.78013048  .00007276  00000-0  26638-3 0  9999
2 41603  97.1392  34.8476 0012612  41.5963 318.6234 15.28241100477031
CAS-2T
1 41847U 16066G   25024.44690095  .00003858  00000-0  56234-3 0  9990
2 41847  98.4362 100.0655 0347902 229.9971 127.0203 14.42772699431384
CAS-4B
1 42759U 17034B   25024.52939529  .00054947  00000-0  11203-2 0  9997
2 42759  43.0131  41.5036 0014462  60.6582 299.5719 15.45312417421433
CAS-4A
1 42761U 17034D   25024.50053607  .00054465  00000-0  10949-2 0  9993
2 42761  43.0171  39.6919 0015456  68.2130 292.0371 15.45710993421449
TechnoSat
1 42829U 17042E   25024.44850569  .00007278  00000-0  58734-3 0  9997
2 42829  97.3926 199.7711 0013578  42.2710 317.9559 15.00066172410303
AO-91
1 43017U 17073E   25024.58498672  .00019408  00000-0  10615-2 0  9992
2 43017  97.5484 258.9171 0183733 269.6120  88.4050 15.00942624388780
S-Net D
1 43186U 18014G   25024.18810005  .00011186  00000-0  70313-3 0  9996
2 43186  97.5754 288.6124 0009094 345.1816  14.9145 15.09374216381781
S-Net B
1 43187U 18014H   25024.72230243  .00011233  00000-0  70605-3 0  9994
2 43187  97.5762 289.1047 0009601 337.3339  22.7465 15.09372429381863
S-Net A
1 43188U 18014J   25024.32149478  .00011236  00000-0  70607-3 0  9995
2 43188  97.5769 288.8420 0009572 339.8034  20.2815 15.09381366381804
S-Net C
1 43189U 18014K   25023.72998746  .00010270  00000-0  64618-3 0  9991
2 43189  97.5781 288.2483 0011031 332.0417  28.0218 15.09346464380267
Ten-Koh
1 43677U 18084G   25024.44358571  .00006643  00000-0  55030-3 0  9993
2 43677  98.0807 191.3544 0013109   0.6385 359.4851 14.99142731339836
PO-101
1 43678U 18084H   25024.77264287  .00003330  00000-0  29342-3 0  9997
2 43678  98.0903 195.9001 0009481  24.4384 335.7284 14.97163747340054
QO-100
1 43700U 18090A   25023.77705589  .00000166  00000-0  00000-0 0  9995
2 43700   0.0175  59.2562 0001099 260.9675 108.7123  1.00273782 22569
MinXSS-2
1 43758U 18099A   25024.49619034  .00025967  00000-0  12322-2 0  9994
2 43758  97.5239  90.5782 0012357 274.1745  85.8078 15.19175864336266
AO-95
1 43770U 18099N   25024.42375310  .00017645  00000-0  99689-3 0  9993
2 43770  97.5154  84.2411 0011114 330.4543  29.6059 15.13115567335933
RANGE-A
1 43773U 18099R   25024.58189045  .00009333  00000-0  62868-3 0  9995
2 43773  97.4716  76.9654 0010557 302.7797  57.2413 15.06856825335728
MOVE-II
1 43780U 18099Y   25024.15359664  .00079002  00000-0  20467-2 0  9990
2 43780  97.4880  93.8670 0003952 282.9162  77.1641 15.38736431336618
SNUSat 2
1 43782U 18099AA  25024.70127119  .00015439  00000-0  92155-3 0  9999
2 43782  97.4834  82.3053 0011702 263.0999  96.8900 15.11155861335952
SnugLite
1 43784U 18099AC  25024.61386624  .00017821  00000-0  10000-2 0  9994
2 43784  97.4652  81.5708 0002401 269.7782  90.3174 15.13406814336041
ITASat 1
1 43786U 18099AE  25024.64309104  .00013807  00000-0  85182-3 0  9991
2 43786  97.4795  82.1116 0014508 318.8191  41.1943 15.09947826335924
EAGLET 1
1 43790U 18099AJ  25024.60239347  .00008794  00000-0  59007-3 0  9999
2 43790  97.4994  82.3907 0011178 299.4502  60.5610 15.07011643335574
ESEO
1 43792U 18099AL  25024.58168005  .00003723  00000-0  29084-3 0  9999
2 43792  97.4696  77.3684 0008127 251.6994 108.3347 15.01670558335406
CSIM
1 43793U 18099AM  25024.72449178  .00083042  00000-0  21555-2 0  9995
2 43793  97.5057  96.3798 0007522 253.4701 106.5718 15.38640174336549
JO-97
1 43803U 18099AX  25024.64443441  .00021574  00000-0  11289-2 0  9990
2 43803  97.4894  85.2484 0007112 259.0257 101.0175 15.15835616336146
Suomi 100
1 43804U 18099AY  25024.47166746  .00018038  00000-0  99072-3 0  9990
2 43804  97.4963  84.6861 0012223 260.3178  99.6673 15.14111400336076
ISAT
1 43879U 18111D   25024.71157806  .00031032  00000-0  13565-2 0  9992
2 43879  97.6051 296.8204 0009260 326.1125  33.9518 15.21991901330956
UWE-4
1 43880U 18111E   25024.20431844  .00025715  00000-0  12091-2 0  9999
2 43880  97.5990 295.5796 0012969 336.1579  23.9053 15.19490560332873
Sparrow
1 43881U 18111F   25024.52306092  .00031839  00000-0  13586-2 0  9995
2 43881  97.6170 299.0488 0008681  11.1098 349.0328 15.22813117333020
Prox-1
1 44339U 19036A   25023.95389472  .00020086  00000-0  28614-2 0  9990
2 44339  23.9970 236.2700 0007966 321.9367  38.0566 14.75260879297784
SONATE
1 44400U 19038Q   25024.57792427  .00074630  00000-0  10735-2 0  9997
2 44400  97.7113  37.7244 0012048  41.7220 318.4950 15.55734322308222
